Terminal Aerodrome Forecast
Issued by NWS

Home | Current Version | Previous Version | Text Only | Print | Product List | Glossary On
Versions: 1 2 3 4 5 6 7 8 9 10 11 12 13 14 15 16 17 18 19 20 21 22 23 24 25 26 27 28 29 30
000
FTUS41 KBUF 281100
TAFJHW
TAF
KJHW 281120Z 2812/2912 33008KT 3SM -SN OVC015
     FM281500 33011KT P6SM -SHSN OVC030
     FM281700 32012KT P6SM OVC035
     FM282200 31008KT P6SM SCT040
     FM290200 30005KT P6SM SKC
      AMD LTD TO CLD VIS AND WIND=

USA.gov is the U.S. government's official web portal to all federal, state and local government web resources and services.